This demonstration page uses our WeatherBlox Daily Observations layout. Learn more.

Left ArrowRight Arrow

44.89941, -97.11507

Hourly Observations for June 17, 2021

Temp ( °F °C ) Dew Point ( °F °C ) Humidity (%) Winds ( mph kmh ) Pressure ( in mb ) Visibility ( mi km ) Precip ( " mm )
12:53 am 00:53 Clear 74 23.3 65 18.3 74 74 NNW 7 11 29.85 1011 10 16 0.00 0.00
1:53 am 01:53 Clear 74 23.3 56 13.3 54 54 N 13 20 29.85 1011 10 16 0.00 0.00
2:53 am 02:53 Clear 70 21.1 50 10 49 49 N 10 17 29.84 1010 10 16 0.00 0.00
3:53 am 03:53 Clear 68 20 49 9.4 51 51 N 10 17 29.84 1011 10 16 0.00 0.00
4:53 am 04:53 Clear 67 19.4 49 9.4 53 53 N 10 17 29.85 1011 10 16 0.00 0.00
5:53 am 05:53 Sunny 67 19.4 50 10 55 55 N 14 22 29.85 1011 10 16 0.00 0.00
6:53 am 06:53 Sunny 69 20.6 50 10 51 51 NNE 17 28 29.83 1010 10 16 0.00 0.00
7:53 am 07:53 Sunny 70 21.1 50 10 49 49 NNE 16 26 29.85 1011 10 16 0.00 0.00
8:53 am 08:53 Sunny 72 22.2 50 10 46 46 NE 17 28 29.87 1012 10 16 0.00 0.00
9:53 am 09:53 Mostly Sunny 71 21.7 49 9.4 46 46 E 13 20 29.84 1011 10 16 0.00 0.00
10:12 am 10:12 Mostly Sunny 70 21.1 49 9.4 47 47 E 16 26 29.77 1008 10 16 0.00 0.00
10:53 am 10:53 Sunny 73 22.8 51 10.6 46 46 ENE 17 28 29.82 1010 10 16 0.00 0.00
11:53 am 11:53 Sunny 78 25.6 49 9.4 36 36 NNE 10 17 29.88 1012 10 16 0.00 0.00
12:53 pm 12:53 Sunny 79 26.1 50 10 36 36 NNE 8 13 29.87 1012 10 16 0.00 0.00
1:53 pm 13:53 Sunny 82 27.8 49 9.4 32 32 NNE 9 15 29.86 1011 10 16 0.00 0.00
2:53 pm 14:53 Sunny 82 27.8 48 8.9 31 31 N 6 9 29.85 1011 10 16 0.00 0.00
3:53 pm 15:53 Sunny 82 27.8 47 8.3 29 29 N 12 19 29.83 1010 10 16 0.00 0.00
4:53 pm 16:53 Sunny 84 28.9 45 7.2 25 25 N 12 19 29.80 1009 10 16 0.00 0.00
5:53 pm 17:53 Sunny 83 28.3 44 6.7 25 25 N 9 15 29.81 1009 10 16 0.00 0.00
6:53 pm 18:53 Sunny 82 27.8 47 8.3 29 29 N 9 15 29.80 1009 10 16 0.00 0.00
7:53 pm 19:53 Sunny 80 26.7 46 7.8 30 30 NNE 8 13 29.80 1009 10 16 0.00 0.00
8:53 pm 20:53 Sunny 74 23.3 48 8.9 40 40 NNE 5 7 29.81 1009 10 16 0.00 0.00
9:53 pm 21:53 Clear 72 22.2 48 8.9 43 43 Calm 29.82 1010 10 16 0.00 0.00
10:53 pm 22:53 Clear 65 18.3 51 10.6 61 61 Calm 29.83 1010 10 16 0.00 0.00
11:53 pm 23:53 Clear 62 16.7 50 10 65 65 Calm 29.82 1010 10 16 0.00 0.00

Powered by AerisWeather